When you browse on this site, cookies collect data to enhance your experience and personalize the content and advertising you see.
Visit our Privacy Policy to learn more. By continuing to use the site, you agree to this use of cookies and data.
  • In Schweiz
  • Länderverzeichnis
  • Für 7 Tage
  • Wassertemperatur
  • Wetterkarte
  • Widgets
  • user-avatar
    Anmelden

    Stündliche Wetter Swansea

    Heute, 2 April, Donnerstag

    Zeit Temperatur Niederschläge Wind Luftdruck Luftfeuchtigkeit
    00:00 +2°C° 0 mm 3 m/S 764 mmHg 91%
    01:00 +3°C° 0 mm 3 m/S 764 mmHg 90%
    02:00 +3°C° 0 mm 3 m/S 764 mmHg 90%
    03:00 +4°C° 0 mm 3 m/S 763 mmHg 89%
    04:00 +4°C° 0 mm 3 m/S 763 mmHg 90%
    05:00 +4°C° 0 mm 3 m/S 763 mmHg 91%
    06:00 +4°C° 0 mm 3 m/S 762 mmHg 92%
    07:00 +5°C° 0 mm 3 m/S 762 mmHg 89%
    08:00 +7°C° 0 mm 4 m/S 762 mmHg 87%
    09:00 +8°C° 0 mm 4 m/S 762 mmHg 84%
    10:00 +8°C° 0.1 mm 5 m/S 762 mmHg 83%
    11:00 +9°C° 0.1 mm 5 m/S 762 mmHg 82%
    12:00 +9°C° 0.1 mm 6 m/S 761 mmHg 81%
    13:00 +9°C° 0.1 mm 6 m/S 761 mmHg 82%
    14:00 +9°C° 0.1 mm 6 m/S 761 mmHg 83%
    15:00 +9°C° 0.1 mm 7 m/S 761 mmHg 83%
    16:00 +8°C° 0.1 mm 6 m/S 760 mmHg 85%
    17:00 +8°C° 0.1 mm 6 m/S 760 mmHg 87%
    18:00 +8°C° 0.1 mm 6 m/S 760 mmHg 89%
    19:00 +7°C° 0 mm 5 m/S 760 mmHg 92%
    20:00 +6°C° 0 mm 5 m/S 761 mmHg 94%
    21:00 +5°C° 0 mm 4 m/S 761 mmHg 96%
    22:00 +4°C° 0 mm 4 m/S 761 mmHg 95%
    23:00 +4°C° 0 mm 4 m/S 761 mmHg 94%

    Morgen, 3 April, Freitag

    Zeit Temperatur Niederschläge Wind Luftdruck Luftfeuchtigkeit
    00:00 +3°C° 0 mm 3 m/S 762 mmHg 93%
    01:00 +3°C° 0 mm 3 m/S 761 mmHg 93%
    02:00 +3°C° 0 mm 3 m/S 761 mmHg 92%
    03:00 +2°C° 0 mm 3 m/S 761 mmHg 92%
    04:00 +2°C° 0 mm 3 m/S 761 mmHg 92%
    05:00 +2°C° 0 mm 3 m/S 762 mmHg 92%
    06:00 +1°C° 0 mm 3 m/S 762 mmHg 92%
    07:00 +3°C° 0 mm 3 m/S 762 mmHg 86%
    08:00 +4°C° 0 mm 3 m/S 762 mmHg 81%
    09:00 +7°C° 0 mm 3 m/S 762 mmHg 76%
    10:00 +7°C° 0 mm 3 m/S 762 mmHg 73%
    11:00 +8°C° 0 mm 3 m/S 762 mmHg 71%
    12:00 +9°C° 0 mm 3 m/S 762 mmHg 68%
    13:00 +9°C° 0 mm 3 m/S 762 mmHg 70%
    14:00 +9°C° 0 mm 3 m/S 762 mmHg 72%
    15:00 +8°C° 0 mm 4 m/S 762 mmHg 73%
    16:00 +8°C° 0 mm 3 m/S 762 mmHg 77%
    17:00 +8°C° 0 mm 3 m/S 762 mmHg 80%
    18:00 +7°C° 0 mm 2 m/S 762 mmHg 84%
    19:00 +6°C° 0 mm 2 m/S 762 mmHg 86%
    20:00 +6°C° 0 mm 1 m/S 762 mmHg 89%
    21:00 +5°C° 0 mm 1 m/S 762 mmHg 91%
    22:00 +4°C° 0 mm 1 m/S 763 mmHg 91%
    23:00 +3°C° 0 mm 2 m/S 763 mmHg 91%

    übermorgen, 4 April, Samstag

    Zeit Temperatur Niederschläge Wind Luftdruck Luftfeuchtigkeit
    00:00 +3°C° 0 mm 2 m/S 763 mmHg 91%
    01:00 +3°C° 0 mm 2 m/S 763 mmHg 90%
    02:00 +2°C° 0 mm 3 m/S 763 mmHg 90%
    03:00 +2°C° 0 mm 3 m/S 762 mmHg 90%
    04:00 +2°C° 0 mm 3 m/S 762 mmHg 91%
    05:00 +2°C° 0 mm 3 m/S 762 mmHg 92%
    06:00 +2°C° 0 mm 3 m/S 762 mmHg 93%
    07:00 +4°C° 0 mm 4 m/S 762 mmHg 90%
    08:00 +5°C° 0 mm 5 m/S 761 mmHg 88%
    09:00 +7°C° 0 mm 6 m/S 761 mmHg 85%
    10:00 +8°C° 0 mm 6 m/S 761 mmHg 81%
    11:00 +9°C° 0 mm 7 m/S 761 mmHg 76%
    12:00 +10°C° 0 mm 7 m/S 761 mmHg 72%
    13:00 +10°C° 0 mm 7 m/S 761 mmHg 71%
    14:00 +11°C° 0 mm 7 m/S 760 mmHg 70%
    15:00 +11°C° 0 mm 7 m/S 760 mmHg 68%
    16:00 +10°C° 0 mm 7 m/S 760 mmHg 72%
    17:00 +9°C° 0 mm 7 m/S 759 mmHg 76%
    18:00 +9°C° 0 mm 6 m/S 759 mmHg 80%
    19:00 +8°C° 0 mm 6 m/S 759 mmHg 84%
    20:00 +7°C° 0 mm 6 m/S 759 mmHg 88%
    21:00 +5°C° 0 mm 6 m/S 759 mmHg 92%
    22:00 +5°C° 0 mm 6 m/S 759 mmHg 92%
    23:00 +5°C° 0 mm 6 m/S 759 mmHg 92%

    5 April, Sonntag

    Zeit Temperatur Niederschläge Wind Luftdruck Luftfeuchtigkeit
    00:00 +5°C° 0 mm 7 m/S 758 mmHg 92%
    01:00 +5°C° 0 mm 7 m/S 758 mmHg 91%
    02:00 +5°C° 0 mm 7 m/S 757 mmHg 91%
    03:00 +5°C° 0 mm 7 m/S 756 mmHg 91%
    04:00 +5°C° 0 mm 7 m/S 755 mmHg 91%
    05:00 +5°C° 0 mm 8 m/S 755 mmHg 90%
    06:00 +5°C° 0 mm 8 m/S 754 mmHg 90%
    07:00 +6°C° 0 mm 8 m/S 754 mmHg 88%
    08:00 +9°C° 0 mm 8 m/S 753 mmHg 86%
    09:00 +10°C° 0 mm 9 m/S 752 mmHg 84%
    10:00 +11°C° 0 mm 9 m/S 752 mmHg 83%
    11:00 +12°C° 0 mm 9 m/S 752 mmHg 81%
    12:00 +13°C° 0 mm 9 m/S 752 mmHg 80%
    13:00 +13°C° 0.2 mm 9 m/S 752 mmHg 81%
    14:00 +13°C° 0.2 mm 9 m/S 751 mmHg 82%
    15:00 +13°C° 0.2 mm 9 m/S 751 mmHg 84%
    16:00 +13°C° 0.4 mm 9 m/S 750 mmHg 87%
    17:00 +12°C° 0.4 mm 9 m/S 750 mmHg 90%
    18:00 +11°C° 0.4 mm 9 m/S 750 mmHg 93%
    19:00 +11°C° 0.2 mm 9 m/S 750 mmHg 93%
    20:00 +11°C° 0.2 mm 9 m/S 750 mmHg 94%
    21:00 +11°C° 0.2 mm 9 m/S 750 mmHg 94%
    22:00 +10°C° 0.5 mm 8 m/S 750 mmHg 93%
    23:00 +9°C° 0.5 mm 7 m/S 751 mmHg 92%

    6 April, Montag

    Zeit Temperatur Niederschläge Wind Luftdruck Luftfeuchtigkeit
    00:00 +8°C° 0.5 mm 6 m/S 751 mmHg 91%
    01:00 +8°C° 0 mm 6 m/S 752 mmHg 91%
    02:00 +8°C° 0 mm 7 m/S 752 mmHg 91%
    03:00 +8°C° 0 mm 7 m/S 753 mmHg 91%
    04:00 +6°C° 0 mm 7 m/S 753 mmHg 91%
    05:00 +6°C° 0 mm 7 m/S 754 mmHg 92%
    06:00 +7°C° 0 mm 6 m/S 755 mmHg 92%
    07:00 +6°C° 0 mm 7 m/S 756 mmHg 87%
    08:00 +8°C° 0 mm 7 m/S 756 mmHg 81%
    09:00 +9°C° 0 mm 8 m/S 757 mmHg 76%
    10:00 +9°C° 0 mm 8 m/S 758 mmHg 73%
    11:00 +10°C° 0 mm 8 m/S 759 mmHg 69%
    12:00 +10°C° 0 mm 8 m/S 760 mmHg 66%
    13:00 +10°C° 0 mm 8 m/S 761 mmHg 67%
    14:00 +10°C° 0 mm 7 m/S 762 mmHg 67%
    15:00 +10°C° 0 mm 7 m/S 762 mmHg 68%
    16:00 +9°C° 0 mm 6 m/S 763 mmHg 72%
    17:00 +9°C° 0 mm 6 m/S 764 mmHg 77%
    18:00 +8°C° 0 mm 5 m/S 764 mmHg 81%
    19:00 +7°C° 0 mm 4 m/S 765 mmHg 85%
    20:00 +6°C° 0 mm 4 m/S 766 mmHg 89%
    21:00 +5°C° 0 mm 3 m/S 767 mmHg 94%
    22:00 +5°C° 0 mm 3 m/S 767 mmHg 94%
    23:00 +4°C° 0 mm 3 m/S 768 mmHg 94%

    7 April, Dienstag

    Zeit Temperatur Niederschläge Wind Luftdruck Luftfeuchtigkeit
    00:00 +5°C° 0 mm 2 m/S 768 mmHg 94%
    01:00 +4°C° 0 mm 3 m/S 768 mmHg 94%
    02:00 +4°C° 0 mm 3 m/S 768 mmHg 94%
    03:00 +3°C° 0 mm 3 m/S 769 mmHg 94%
    04:00 +3°C° 0 mm 3 m/S 769 mmHg 93%
    05:00 +3°C° 0 mm 3 m/S 769 mmHg 92%
    06:00 +3°C° 0 mm 4 m/S 769 mmHg 92%
    07:00 +5°C° 0 mm 4 m/S 769 mmHg 86%
    08:00 +7°C° 0 mm 5 m/S 769 mmHg 81%
    09:00 +8°C° 0 mm 6 m/S 769 mmHg 75%
    10:00 +9°C° 0 mm 6 m/S 769 mmHg 72%
    11:00 +10°C° 0 mm 6 m/S 768 mmHg 69%
    12:00 +11°C° 0 mm 6 m/S 768 mmHg 66%
    13:00 +11°C° 0 mm 6 m/S 768 mmHg 67%
    14:00 +13°C° 0 mm 5 m/S 768 mmHg 67%
    15:00 +13°C° 0 mm 5 m/S 767 mmHg 68%
    16:00 +12°C° 0 mm 5 m/S 767 mmHg 71%
    17:00 +12°C° 0 mm 5 m/S 767 mmHg 75%
    18:00 +10°C° 0 mm 5 m/S 766 mmHg 79%
    19:00 +9°C° 0 mm 5 m/S 766 mmHg 84%
    20:00 +8°C° 0 mm 5 m/S 766 mmHg 89%
    21:00 +7°C° 0 mm 5 m/S 766 mmHg 94%
    22:00 +7°C° 0 mm 5 m/S 766 mmHg 93%
    23:00 +7°C° 0 mm 5 m/S 766 mmHg 93%
    Mehr zeigen